{"data":{"norad_id":55364,"intl_designator":"2023-013AK","name":"STARLINK-5627","alt_names":[],"object_type":"PAYLOAD","status":"ACTIVE","operator":null,"country":"US","launch_date":"2023-01-26","launch_site_code":"AFETR","launch_vehicle":null,"mission":null,"orbit_class":"UNKNOWN","rcs_meters":null,"size_class":null,"mass_kg":null,"dimensions":null,"purposes":["comms"],"wikipedia_slug":null,"has_3d_model":false,"image_url":null,"decayed_at":null,"tle_current":{"epoch":"2026-05-24T16:02:17.905056Z","epoch_age_seconds":103738,"freshness":"FRESH","line1":"1 55364U 23013AK  26144.66826279  .00000043  00000+0  11074-4 0  9998","line2":"2 55364  43.0022 237.7044 0001500 263.2500  96.8181 15.27577399183254","mean_motion":15.27577399,"eccentricity":0.00015,"inclination_deg":43.0022,"raan_deg":237.7044,"arg_perigee_deg":263.25,"mean_anomaly_deg":96.8181,"bstar":1.1074e-5,"rev_number":18325,"period_min":94.266909221272,"perigee_km":482.02770529775,"apogee_km":484.08606346307,"semimajor_km":6861.1938843804,"source":"CELESTRAK","updated_at":"2026-05-25T13:38:17.766292Z"}}}